Time,TemperatureF,DewpointF,PressureIn,WindDirection,WindDirectionDegrees,WindSpeedMPH,WindSpeedGustMPH,Humidity,HourlyPrecipIn,Conditions,Clouds,dailyrainin,SoftwareType,DateUTC
2013-07-13 00:01:00,66.0,58.9,30.15,NE,52,0.0,0.0,78,0.00,,,0.00,WeatherCatV1.10B1784,2013-07-13 04:01:00,
2013-07-13 00:06:00,66.0,58.6,30.15,NE,52,0.0,0.0,77,0.00,,,0.00,WeatherCatV1.10B1784,2013-07-13 04:06:00,
2013-07-13 00:11:00,66.1,58.3,30.15,NE,52,0.0,0.0,76,0.00,,,0.00,WeatherCatV1.10B1784,2013-07-13 04:11:00,
2013-07-13 00:16:00,66.2,58.8,30.15,NE,52,0.0,0.0,77,0.00,,,0.00,WeatherCatV1.10B1784,2013-07-13 04:16:00,
2013-07-13 00:21:00,66.2,59.1,30.15,NE,52,0.0,0.0,78,0.00,,,0.00,WeatherCatV1.10B1784,2013-07-13 04:21:00,
2013-07-13 00:26:00,66.3,58.9,30.16,NE,52,0.0,0.0,77,0.00,,,0.00,WeatherCatV1.10B1784,2013-07-13 04:26:00,
2013-07-13 00:31:00,66.2,59.5,30.16,NE,52,0.0,0.0,79,0.00,,,0.00,WeatherCatV1.10B1784,2013-07-13 04:31:00,
2013-07-13 00:36:00,66.2,59.8,30.16,NE,52,0.0,0.0,80,0.00,,,0.00,WeatherCatV1.10B1784,2013-07-13 04:36:00,
2013-07-13 00:41:00,66.1,59.4,30.16,NE,52,0.0,0.0,79,0.00,,,0.00,WeatherCatV1.10B1784,2013-07-13 04:41:00,
2013-07-13 00:46:00,66.0,59.6,30.15,NE,52,0.0,0.0,80,0.00,,,0.00,WeatherCatV1.10B1784,2013-07-13 04:46:00,
2013-07-13 00:51:00,66.0,58.9,30.15,NE,52,0.0,0.0,78,0.00,,,0.00,WeatherCatV1.10B1784,2013-07-13 04:51:00,
2013-07-13 00:56:00,66.1,59.7,30.16,NE,52,0.0,0.0,80,0.00,,,0.00,WeatherCatV1.10B1784,2013-07-13 04:56:00,
2013-07-13 01:01:00,66.1,60.1,30.16,NE,52,0.0,0.0,81,0.00,,,0.00,WeatherCatV1.10B1784,2013-07-13 05:01:00,
2013-07-13 01:06:00,66.0,60.0,30.16,NE,52,0.0,0.0,81,0.00,,,0.00,WeatherCatV1.10B1784,2013-07-13 05:06:00,
2013-07-13 01:11:00,65.9,59.5,30.16,NE,52,0.0,0.0,80,0.00,,,0.00,WeatherCatV1.10B1784,2013-07-13 05:11:00,
2013-07-13 01:16:00,65.9,59.2,30.16,NE,52,0.0,0.0,79,0.00,,,0.00,WeatherCatV1.10B1784,2013-07-13 05:16:00,
2013-07-13 01:21:00,65.9,59.5,30.16,NE,52,0.0,0.0,80,0.00,,,0.00,WeatherCatV1.10B1784,2013-07-13 05:21:00,
2013-07-13 01:26:00,65.9,59.2,30.16,NE,52,0.0,0.0,79,0.00,,,0.00,WeatherCatV1.10B1784,2013-07-13 05:26:00,
2013-07-13 01:31:00,65.9,59.5,30.16,NE,52,0.0,0.0,80,0.00,,,0.00,WeatherCatV1.10B1784,2013-07-13 05:31:00,
2013-07-13 01:36:00,65.8,59.5,30.16,NE,52,0.0,0.0,80,0.00,,,0.00,WeatherCatV1.10B1784,2013-07-13 05:36:00,
2013-07-13 01:41:00,65.8,59.8,30.16,NE,52,0.0,0.0,81,0.00,,,0.00,WeatherCatV1.10B1784,2013-07-13 05:41:00,
2013-07-13 01:46:00,65.8,59.1,30.16,NE,52,0.0,0.0,79,0.00,,,0.00,WeatherCatV1.10B1784,2013-07-13 05:46:00,
2013-07-13 01:51:00,65.7,59.0,30.16,NE,52,0.0,0.0,79,0.00,,,0.00,WeatherCatV1.10B1784,2013-07-13 05:51:00,
2013-07-13 01:56:00,65.8,59.5,30.16,NE,52,0.0,0.0,80,0.00,,,0.00,WeatherCatV1.10B1784,2013-07-13 05:56:00,
2013-07-13 02:01:00,65.8,59.8,30.16,NE,52,0.0,0.0,81,0.00,,,0.00,WeatherCatV1.10B1784,2013-07-13 06:01:00,
2013-07-13 02:06:00,65.7,59.0,30.17,NE,52,0.0,0.0,79,0.00,,,0.00,WeatherCatV1.10B1784,2013-07-13 06:06:00,
2013-07-13 02:11:00,65.6,59.3,30.16,NE,52,0.0,0.0,80,0.00,,,0.00,WeatherCatV1.10B1784,2013-07-13 06:11:00,
2013-07-13 02:16:00,65.7,59.0,30.16,NE,52,0.0,0.0,79,0.00,,,0.00,WeatherCatV1.10B1784,2013-07-13 06:16:00,
2013-07-13 02:21:00,65.7,59.0,30.17,NE,52,0.0,0.0,79,0.00,,,0.00,WeatherCatV1.10B1784,2013-07-13 06:21:00,
2013-07-13 02:26:00,65.7,58.6,30.17,NE,52,0.0,0.0,78,0.00,,,0.00,WeatherCatV1.10B1784,2013-07-13 06:26:00,
2013-07-13 02:31:00,65.6,59.6,30.16,NE,52,0.0,0.0,81,0.00,,,0.00,WeatherCatV1.10B1784,2013-07-13 06:31:00,
2013-07-13 02:36:00,65.5,59.2,30.16,NE,52,0.0,0.0,80,0.00,,,0.00,WeatherCatV1.10B1784,2013-07-13 06:36:00,
2013-07-13 02:41:00,65.4,59.4,30.16,NE,52,0.0,0.0,81,0.00,,,0.00,WeatherCatV1.10B1784,2013-07-13 06:41:00,
2013-07-13 02:46:00,65.4,59.8,30.17,NE,52,0.0,0.0,82,0.00,,,0.00,WeatherCatV1.10B1784,2013-07-13 06:46:00,
2013-07-13 02:51:00,65.3,59.7,30.17,NE,52,0.0,0.0,82,0.00,,,0.00,WeatherCatV1.10B1784,2013-07-13 06:51:00,
2013-07-13 02:56:00,65.3,59.7,30.17,NE,52,0.0,0.0,82,0.00,,,0.00,WeatherCatV1.10B1784,2013-07-13 06:56:00,
2013-07-13 03:01:00,65.3,60.0,30.17,NE,52,0.0,0.0,83,0.00,,,0.00,WeatherCatV1.10B1784,2013-07-13 07:01:00,
2013-07-13 03:06:00,65.3,60.0,30.17,NE,52,0.0,0.0,83,0.00,,,0.00,WeatherCatV1.10B1784,2013-07-13 07:06:00,
2013-07-13 03:11:00,65.2,59.2,30.17,NE,52,0.0,0.0,81,0.00,,,0.00,WeatherCatV1.10B1784,2013-07-13 07:11:00,
2013-07-13 03:16:00,65.2,59.2,30.17,NE,52,0.0,0.0,81,0.00,,,0.00,WeatherCatV1.10B1784,2013-07-13 07:16:00,
2013-07-13 03:21:00,65.2,59.2,30.17,NE,52,0.0,0.0,81,0.00,,,0.00,WeatherCatV1.10B1784,2013-07-13 07:21:00,
2013-07-13 03:26:00,65.2,59.2,30.17,NE,52,0.0,0.0,81,0.00,,,0.00,WeatherCatV1.10B1784,2013-07-13 07:26:00,
2013-07-13 03:31:00,65.2,59.2,30.17,NE,52,0.0,0.0,81,0.00,,,0.00,WeatherCatV1.10B1784,2013-07-13 07:31:00,
2013-07-13 03:36:00,65.2,58.9,30.17,NE,52,0.0,0.0,80,0.00,,,0.00,WeatherCatV1.10B1784,2013-07-13 07:36:00,
2013-07-13 03:41:00,65.2,59.2,30.18,NE,52,0.0,0.0,81,0.00,,,0.00,WeatherCatV1.10B1784,2013-07-13 07:41:00,
2013-07-13 03:46:00,65.1,59.1,30.17,NE,52,0.0,0.0,81,0.00,,,0.00,WeatherCatV1.10B1784,2013-07-13 07:46:00,
2013-07-13 03:51:00,65.1,59.1,30.18,NE,52,0.0,0.0,81,0.00,,,0.00,WeatherCatV1.10B1784,2013-07-13 07:51:00,
2013-07-13 03:56:00,65.1,59.1,30.17,NE,52,0.0,0.0,81,0.00,,,0.00,WeatherCatV1.10B1784,2013-07-13 07:56:00,
2013-07-13 04:01:00,65.0,59.0,30.18,NE,52,0.0,0.0,81,0.00,,,0.00,WeatherCatV1.10B1784,2013-07-13 08:01:00,
2013-07-13 04:06:00,65.0,59.4,30.18,NE,52,0.0,0.0,82,0.00,,,0.00,WeatherCatV1.10B1784,2013-07-13 08:06:00,
2013-07-13 04:11:00,65.0,59.4,30.18,NE,52,0.0,0.0,82,0.00,,,0.00,WeatherCatV1.10B1784,2013-07-13 08:11:00,
2013-07-13 04:16:00,65.0,59.4,30.18,NE,52,0.0,0.0,82,0.00,,,0.00,WeatherCatV1.10B1784,2013-07-13 08:16:00,
2013-07-13 04:21:00,65.0,59.4,30.18,NE,52,0.0,0.0,82,0.00,,,0.00,WeatherCatV1.10B1784,2013-07-13 08:21:00,
2013-07-13 04:26:00,65.0,59.4,30.18,NE,52,0.0,0.0,82,0.00,,,0.00,WeatherCatV1.10B1784,2013-07-13 08:26:00,
2013-07-13 04:31:00,65.1,59.5,30.18,NE,52,0.0,0.0,82,0.00,,,0.00,WeatherCatV1.10B1784,2013-07-13 08:31:00,
2013-07-13 04:36:00,65.0,59.4,30.18,NE,52,0.0,0.0,82,0.00,,,0.00,WeatherCatV1.10B1784,2013-07-13 08:36:00,
2013-07-13 04:42:00,65.0,59.4,30.19,NE,52,0.0,0.0,82,0.00,,,0.00,WeatherCatV1.10B1784,2013-07-13 08:42:00,
2013-07-13 04:47:00,64.9,59.3,30.19,NE,52,0.0,0.0,82,0.00,,,0.00,WeatherCatV1.10B1784,2013-07-13 08:47:00,
2013-07-13 04:52:00,64.9,59.3,30.19,NE,52,0.0,0.0,82,0.00,,,0.00,WeatherCatV1.10B1784,2013-07-13 08:52:00,
2013-07-13 04:57:00,64.9,59.3,30.19,NE,52,0.0,0.0,82,0.00,,,0.00,WeatherCatV1.10B1784,2013-07-13 08:57:00,
2013-07-13 05:02:00,64.9,59.3,30.20,NE,52,0.0,0.0,82,0.00,,,0.00,WeatherCatV1.10B1784,2013-07-13 09:02:00,
2013-07-13 05:07:00,65.0,59.4,30.20,NE,52,0.0,0.0,82,0.00,,,0.00,WeatherCatV1.10B1784,2013-07-13 09:07:00,
2013-07-13 05:12:00,65.0,59.4,30.20,NE,52,0.0,0.0,82,0.00,,,0.00,WeatherCatV1.10B1784,2013-07-13 09:12:00,
2013-07-13 05:17:00,65.0,59.4,30.20,NE,52,0.0,0.0,82,0.00,,,0.00,WeatherCatV1.10B1784,2013-07-13 09:17:00,
2013-07-13 05:22:00,65.0,59.4,30.20,NE,52,0.0,0.0,82,0.00,,,0.00,WeatherCatV1.10B1784,2013-07-13 09:22:00,
2013-07-13 05:27:00,65.0,59.4,30.20,NE,52,0.0,0.0,82,0.00,,,0.00,WeatherCatV1.10B1784,2013-07-13 09:27:00,
2013-07-13 05:32:00,64.9,59.3,30.20,NE,52,0.0,0.0,82,0.00,,,0.00,WeatherCatV1.10B1784,2013-07-13 09:32:00,
2013-07-13 05:37:00,64.9,59.6,30.21,NE,52,0.0,0.0,83,0.00,,,0.00,WeatherCatV1.10B1784,2013-07-13 09:37:00,
2013-07-13 05:42:00,64.9,59.9,30.21,NE,52,0.0,0.0,84,0.00,,,0.00,WeatherCatV1.10B1784,2013-07-13 09:42:00,
2013-07-13 05:47:00,64.8,59.2,30.21,NE,52,0.0,0.0,82,0.00,,,0.00,WeatherCatV1.10B1784,2013-07-13 09:47:00,
2013-07-13 05:52:00,64.7,59.4,30.21,NE,52,0.0,0.0,83,0.00,,,0.00,WeatherCatV1.10B1784,2013-07-13 09:52:00,
2013-07-13 05:57:00,64.7,59.4,30.21,NE,52,0.0,0.0,83,0.00,,,0.00,WeatherCatV1.10B1784,2013-07-13 09:57:00,
2013-07-13 06:02:00,64.7,59.4,30.21,NE,52,0.0,0.0,83,0.00,,,0.00,WeatherCatV1.10B1784,2013-07-13 10:02:00,
2013-07-13 06:07:00,64.7,59.4,30.21,NE,52,0.0,0.0,83,0.00,,,0.00,WeatherCatV1.10B1784,2013-07-13 10:07:00,
2013-07-13 06:12:00,64.7,59.4,30.22,NE,52,0.0,0.0,83,0.00,,,0.00,WeatherCatV1.10B1784,2013-07-13 10:12:00,
2013-07-13 06:17:00,64.7,59.4,30.22,NE,52,0.0,0.0,83,0.00,,,0.00,WeatherCatV1.10B1784,2013-07-13 10:17:00,
2013-07-13 06:22:00,64.8,59.2,30.22,ENE,62,0.0,0.0,82,0.00,,,0.00,WeatherCatV1.10B1784,2013-07-13 10:22:00,
2013-07-13 06:27:00,64.8,59.2,30.22,NE,40,0.0,3.0,82,0.00,,,0.00,WeatherCatV1.10B1784,2013-07-13 10:27:00,
2013-07-13 06:32:00,64.8,59.5,30.22,NE,40,0.0,0.0,83,0.00,,,0.00,WeatherCatV1.10B1784,2013-07-13 10:32:00,
2013-07-13 06:37:00,64.8,59.5,30.22,NE,40,0.0,0.0,83,0.00,,,0.00,WeatherCatV1.10B1784,2013-07-13 10:37:00,
2013-07-13 06:42:00,64.8,59.8,30.22,NE,40,0.0,0.0,84,0.00,,,0.00,WeatherCatV1.10B1784,2013-07-13 10:42:00,
2013-07-13 06:47:00,64.8,59.8,30.22,NE,40,0.0,0.0,84,0.00,,,0.00,WeatherCatV1.10B1784,2013-07-13 10:47:00,
2013-07-13 06:52:00,64.8,59.8,30.22,NE,40,0.0,0.0,84,0.00,,,0.00,WeatherCatV1.10B1784,2013-07-13 10:52:00,
2013-07-13 06:57:00,64.9,60.3,30.22,NE,40,0.0,0.0,85,0.00,,,0.00,WeatherCatV1.10B1784,2013-07-13 10:57:00,
2013-07-13 07:02:00,64.8,59.8,30.22,NE,40,0.0,0.0,84,0.00,,,0.00,WeatherCatV1.10B1784,2013-07-13 11:02:00,
2013-07-13 07:07:00,64.7,60.1,30.22,NE,40,0.0,0.0,85,0.00,,,0.00,WeatherCatV1.10B1784,2013-07-13 11:07:00,
2013-07-13 07:12:00,64.7,60.4,30.22,NE,40,0.0,0.0,86,0.00,,,0.00,WeatherCatV1.10B1784,2013-07-13 11:12:00,
2013-07-13 07:17:00,64.8,59.8,30.23,NE,40,0.0,0.0,84,0.00,,,0.00,WeatherCatV1.10B1784,2013-07-13 11:17:00,
2013-07-13 07:22:00,64.9,59.9,30.23,NE,40,0.0,0.0,84,0.00,,,0.00,WeatherCatV1.10B1784,2013-07-13 11:22:00,
2013-07-13 07:27:00,65.1,59.8,30.23,NE,40,0.0,0.0,83,0.00,,,0.00,WeatherCatV1.10B1784,2013-07-13 11:27:00,
2013-07-13 07:32:00,65.1,59.8,30.23,NE,40,0.0,0.0,83,0.00,,,0.00,WeatherCatV1.10B1784,2013-07-13 11:32:00,
2013-07-13 07:37:00,65.1,59.8,30.23,NE,40,0.0,0.0,83,0.00,,,0.00,WeatherCatV1.10B1784,2013-07-13 11:37:00,
2013-07-13 07:42:00,65.2,60.2,30.23,NE,40,0.0,0.0,84,0.00,,,0.00,WeatherCatV1.10B1784,2013-07-13 11:42:00,
2013-07-13 07:47:00,65.2,60.2,30.23,NE,40,0.0,0.0,84,0.00,,,0.00,WeatherCatV1.10B1784,2013-07-13 11:47:00,
2013-07-13 07:52:00,65.4,60.1,30.24,ENE,78,0.0,0.0,83,0.00,,,0.00,WeatherCatV1.10B1784,2013-07-13 11:52:00,
2013-07-13 07:57:00,65.5,60.2,30.24,ENE,78,0.0,0.0,83,0.00,,,0.00,WeatherCatV1.10B1784,2013-07-13 11:57:00,
2013-07-13 08:02:00,65.7,60.7,30.24,ENE,78,0.0,0.0,84,0.00,,,0.00,WeatherCatV1.10B1784,2013-07-13 12:02:00,
2013-07-13 08:07:00,65.6,60.6,30.24,ENE,78,0.0,0.0,84,0.00,,,0.00,WeatherCatV1.10B1784,2013-07-13 12:07:00,
2013-07-13 08:12:00,65.6,60.6,30.24,ENE,78,0.0,0.0,84,0.00,,,0.00,WeatherCatV1.10B1784,2013-07-13 12:12:00,
2013-07-13 08:17:00,65.7,60.7,30.25,ENE,78,0.0,0.0,84,0.00,,,0.00,WeatherCatV1.10B1784,2013-07-13 12:17:00,
2013-07-13 08:22:00,66.0,61.0,30.25,ENE,78,0.0,0.0,84,0.00,,,0.00,WeatherCatV1.10B1784,2013-07-13 12:22:00,
2013-07-13 08:27:00,66.1,60.8,30.25,ENE,78,0.0,0.0,83,0.00,,,0.00,WeatherCatV1.10B1784,2013-07-13 12:27:00,
2013-07-13 08:32:00,66.3,61.0,30.25,ENE,78,0.0,0.0,83,0.00,,,0.00,WeatherCatV1.10B1784,2013-07-13 12:32:00,
2013-07-13 08:37:00,66.5,61.2,30.25,ENE,78,0.0,0.0,83,0.00,,,0.00,WeatherCatV1.10B1784,2013-07-13 12:37:00,
2013-07-13 08:42:00,66.6,61.6,30.25,ENE,78,0.0,0.0,84,0.00,,,0.00,WeatherCatV1.10B1784,2013-07-13 12:42:00,
2013-07-13 08:47:00,66.7,61.7,30.25,ENE,78,0.0,0.0,84,0.00,,,0.00,WeatherCatV1.10B1784,2013-07-13 12:47:00,
2013-07-13 08:52:00,66.6,61.3,30.25,ENE,78,0.0,0.0,83,0.00,,,0.00,WeatherCatV1.10B1784,2013-07-13 12:52:00,
2013-07-13 08:57:00,66.7,61.4,30.25,ENE,78,0.0,0.0,83,0.00,,,0.00,WeatherCatV1.10B1784,2013-07-13 12:57:00,
2013-07-13 09:02:00,66.8,61.8,30.25,ENE,78,0.0,0.0,84,0.00,,,0.00,WeatherCatV1.10B1784,2013-07-13 13:02:00,
2013-07-13 09:07:00,67.0,61.7,30.25,ENE,75,0.0,0.0,83,0.00,,,0.00,WeatherCatV1.10B1784,2013-07-13 13:07:00,
2013-07-13 09:12:00,67.2,61.9,30.25,ENE,75,0.0,1.0,83,0.00,,,0.00,WeatherCatV1.10B1784,2013-07-13 13:12:00,
2013-07-13 09:17:00,67.5,61.8,30.25,ENE,75,0.0,0.0,82,0.00,,,0.00,WeatherCatV1.10B1784,2013-07-13 13:17:00,
2013-07-13 09:22:00,67.7,62.0,30.25,ENE,75,0.0,0.0,82,0.00,,,0.00,WeatherCatV1.10B1784,2013-07-13 13:22:00,
2013-07-13 09:27:00,68.0,61.9,30.24,ENE,75,0.0,0.0,81,0.00,,,0.00,WeatherCatV1.10B1784,2013-07-13 13:27:00,
2013-07-13 09:32:00,68.6,62.9,30.24,ENE,75,0.0,0.0,82,0.00,,,0.00,WeatherCatV1.10B1784,2013-07-13 13:32:00,
2013-07-13 09:37:00,68.8,63.1,30.25,ENE,75,0.0,0.0,82,0.00,,,0.00,WeatherCatV1.10B1784,2013-07-13 13:37:00,
2013-07-13 09:42:00,69.1,63.0,30.25,ENE,75,0.0,0.0,81,0.00,,,0.00,WeatherCatV1.10B1784,2013-07-13 13:42:00,
2013-07-13 09:47:00,69.1,63.4,30.25,ENE,75,0.0,0.0,82,0.00,,,0.00,WeatherCatV1.10B1784,2013-07-13 13:47:00,
2013-07-13 09:52:00,69.4,63.7,30.25,ESE,119,0.0,0.0,82,0.00,,,0.00,WeatherCatV1.10B1784,2013-07-13 13:52:00,
2013-07-13 09:57:00,69.6,63.9,30.25,ESE,119,0.0,0.0,82,0.00,,,0.00,WeatherCatV1.10B1784,2013-07-13 13:57:00,
2013-07-13 10:02:00,69.6,63.9,30.25,ESE,119,0.0,0.0,82,0.00,,,0.00,WeatherCatV1.10B1784,2013-07-13 14:02:00,
2013-07-13 10:07:00,69.4,64.0,30.25,ESE,119,0.0,0.0,83,0.00,,,0.00,WeatherCatV1.10B1784,2013-07-13 14:07:00,
2013-07-13 10:12:00,69.5,64.1,30.25,ESE,119,0.0,0.0,83,0.00,,,0.00,WeatherCatV1.10B1784,2013-07-13 14:12:00,
2013-07-13 10:17:00,69.5,64.1,30.25,ESE,119,0.0,0.0,83,0.00,,,0.00,WeatherCatV1.10B1784,2013-07-13 14:17:00,
2013-07-13 10:22:00,69.6,64.2,30.25,ESE,119,0.0,0.0,83,0.00,,,0.00,WeatherCatV1.10B1784,2013-07-13 14:22:00,
2013-07-13 10:27:00,69.8,64.4,30.25,ESE,119,0.0,0.0,83,0.00,,,0.00,WeatherCatV1.10B1784,2013-07-13 14:27:00,
2013-07-13 10:32:00,69.8,64.4,30.25,ESE,119,0.0,1.0,83,0.00,,,0.00,WeatherCatV1.10B1784,2013-07-13 14:32:00,
2013-07-13 10:37:00,70.1,64.7,30.25,ESE,119,2.0,2.0,83,0.00,,,0.00,WeatherCatV1.10B1784,2013-07-13 14:37:00,
2013-07-13 10:42:00,70.4,64.6,30.26,ESE,119,0.0,2.0,82,0.00,,,0.00,WeatherCatV1.10B1784,2013-07-13 14:42:00,
2013-07-13 10:47:00,70.7,64.9,30.25,SE,127,0.0,4.0,82,0.00,,,0.00,WeatherCatV1.10B1784,2013-07-13 14:47:00,
2013-07-13 10:52:00,70.8,65.0,30.25,ESE,123,0.0,1.0,82,0.00,,,0.00,WeatherCatV1.10B1784,2013-07-13 14:52:00,
2013-07-13 10:57:00,71.3,65.5,30.25,ESE,122,0.0,1.0,82,0.00,,,0.00,WeatherCatV1.10B1784,2013-07-13 14:57:00,
2013-07-13 11:02:00,71.3,65.2,30.26,ESE,119,1.0,2.0,81,0.00,,,0.00,WeatherCatV1.10B1784,2013-07-13 15:02:00,
2013-07-13 11:07:00,71.7,65.9,30.25,ESE,119,0.0,0.0,82,0.00,,,0.00,WeatherCatV1.10B1784,2013-07-13 15:07:00,
2013-07-13 11:12:00,72.4,66.2,30.25,ESE,117,1.0,1.0,81,0.00,,,0.00,WeatherCatV1.10B1784,2013-07-13 15:12:00,
2013-07-13 11:17:00,72.7,65.8,30.25,SE,125,0.0,0.0,79,0.00,,,0.00,WeatherCatV1.10B1784,2013-07-13 15:17:00,
2013-07-13 11:22:00,73.1,66.6,30.25,SE,125,0.0,1.0,80,0.00,,,0.00,WeatherCatV1.10B1784,2013-07-13 15:22:00,
2013-07-13 11:27:00,73.7,66.8,30.25,SE,131,1.0,3.0,79,0.00,,,0.00,WeatherCatV1.10B1784,2013-07-13 15:27:00,
2013-07-13 11:32:00,74.4,67.1,30.25,SE,134,7.0,7.0,78,0.00,,,0.00,WeatherCatV1.10B1784,2013-07-13 15:32:00,
2013-07-13 11:37:00,74.3,66.6,30.25,ESE,104,0.0,1.0,77,0.00,,,0.00,WeatherCatV1.10B1784,2013-07-13 15:37:00,
2013-07-13 11:42:00,74.0,67.1,30.26,ESE,120,1.0,4.0,79,0.00,,,0.00,WeatherCatV1.10B1784,2013-07-13 15:42:00,
2013-07-13 11:47:00,74.0,67.1,30.25,ESE,120,0.0,2.0,79,0.00,,,0.00,WeatherCatV1.10B1784,2013-07-13 15:47:00,
2013-07-13 11:52:00,74.0,66.7,30.25,ESE,120,0.0,0.0,78,0.00,,,0.00,WeatherCatV1.10B1784,2013-07-13 15:52:00,
2013-07-13 11:57:00,73.7,66.8,30.25,ESE,120,0.0,0.0,79,0.00,,,0.00,WeatherCatV1.10B1784,2013-07-13 15:57:00,
2013-07-13 12:02:00,72.9,66.7,30.26,ESE,120,0.0,0.0,81,0.00,,,0.00,WeatherCatV1.10B1784,2013-07-13 16:02:00,
2013-07-13 12:07:00,72.9,67.1,30.26,ESE,120,0.0,0.0,82,0.00,,,0.00,WeatherCatV1.10B1784,2013-07-13 16:07:00,
2013-07-13 12:12:00,73.2,67.4,30.26,ESE,120,0.0,0.0,82,0.00,,,0.00,WeatherCatV1.10B1784,2013-07-13 16:12:00,
2013-07-13 12:17:00,73.1,67.3,30.25,ESE,120,0.0,0.0,82,0.00,,,0.00,WeatherCatV1.10B1784,2013-07-13 16:17:00,
2013-07-13 12:22:00,73.4,67.6,30.26,ESE,120,0.0,4.0,82,0.00,,,0.00,WeatherCatV1.10B1784,2013-07-13 16:22:00,
2013-07-13 12:27:00,73.9,68.0,30.26,ESE,120,0.0,0.0,82,0.00,,,0.00,WeatherCatV1.10B1784,2013-07-13 16:27:00,
2013-07-13 12:32:00,74.0,68.5,30.26,ESE,120,0.0,0.0,83,0.00,,,0.00,WeatherCatV1.10B1784,2013-07-13 16:32:00,
2013-07-13 12:37:00,73.8,67.9,30.26,ESE,120,0.0,0.0,82,0.00,,,0.00,WeatherCatV1.10B1784,2013-07-13 16:37:00,
2013-07-13 12:42:00,73.7,67.8,30.26,ESE,120,0.0,0.0,82,0.00,,,0.00,WeatherCatV1.10B1784,2013-07-13 16:42:00,
2013-07-13 12:47:00,73.5,67.7,30.26,ESE,120,0.0,0.0,82,0.00,,,0.00,WeatherCatV1.10B1784,2013-07-13 16:47:00,
2013-07-13 12:52:00,73.5,67.3,30.26,ESE,120,0.0,0.0,81,0.00,,,0.00,WeatherCatV1.10B1784,2013-07-13 16:52:00,
2013-07-13 12:57:00,73.4,68.3,30.26,ESE,120,0.0,0.0,84,0.00,,,0.00,WeatherCatV1.10B1784,2013-07-13 16:57:00,
2013-07-13 13:02:00,73.2,68.4,30.26,ESE,120,0.0,0.0,85,0.00,,,0.00,WeatherCatV1.10B1784,2013-07-13 17:02:00,
2013-07-13 13:07:00,73.4,69.3,30.26,ESE,120,0.0,0.0,87,0.00,,,0.00,WeatherCatV1.10B1784,2013-07-13 17:07:00,
2013-07-13 13:12:00,73.8,70.0,30.26,ESE,120,0.0,0.0,88,0.00,,,0.00,WeatherCatV1.10B1784,2013-07-13 17:12:00,
2013-07-13 13:17:00,74.1,70.0,30.26,ESE,120,0.0,1.0,87,0.00,,,0.00,WeatherCatV1.10B1784,2013-07-13 17:17:00,
2013-07-13 13:22:00,74.1,69.6,30.26,ESE,119,0.0,1.0,86,0.00,,,0.00,WeatherCatV1.10B1784,2013-07-13 17:22:00,
2013-07-13 13:27:00,73.9,69.8,30.26,ESE,119,0.0,2.0,87,0.00,,,0.00,WeatherCatV1.10B1784,2013-07-13 17:27:00,
2013-07-13 13:32:00,73.5,69.7,30.26,ESE,119,0.0,2.0,88,0.00,,,0.00,WeatherCatV1.10B1784,2013-07-13 17:32:00,
2013-07-13 13:37:00,73.2,69.1,30.26,ESE,119,0.0,0.0,87,0.00,,,0.00,WeatherCatV1.10B1784,2013-07-13 17:37:00,
2013-07-13 13:42:00,73.3,69.9,30.26,ESE,119,0.0,0.0,89,0.00,,,0.00,WeatherCatV1.10B1784,2013-07-13 17:42:00,
2013-07-13 13:47:00,73.0,69.2,30.26,ESE,119,0.0,0.0,88,0.00,,,0.00,WeatherCatV1.10B1784,2013-07-13 17:47:00,
2013-07-13 13:52:00,72.8,69.4,30.26,ESE,119,0.0,0.0,89,0.00,,,0.00,WeatherCatV1.10B1784,2013-07-13 17:52:00,
2013-07-13 13:57:00,72.8,69.4,30.26,ESE,119,0.0,0.0,89,0.00,,,0.00,WeatherCatV1.10B1784,2013-07-13 17:57:00,
2013-07-13 14:02:00,72.8,69.4,30.26,ESE,119,0.0,0.0,89,0.00,,,0.00,WeatherCatV1.10B1784,2013-07-13 18:02:00,
2013-07-13 14:07:00,73.1,70.0,30.26,ESE,119,0.0,0.0,90,0.00,,,0.00,WeatherCatV1.10B1784,2013-07-13 18:07:00,
2013-07-13 14:12:00,73.2,69.8,30.26,ESE,119,0.0,0.0,89,0.00,,,0.00,WeatherCatV1.10B1784,2013-07-13 18:12:00,
2013-07-13 14:17:00,73.3,69.9,30.26,ESE,119,0.0,2.0,89,0.00,,,0.00,WeatherCatV1.10B1784,2013-07-13 18:17:00,
2013-07-13 14:22:00,73.5,70.0,30.26,ESE,119,0.0,3.0,89,0.00,,,0.00,WeatherCatV1.10B1784,2013-07-13 18:22:00,
2013-07-13 14:27:00,73.6,69.5,30.26,ESE,119,0.0,3.0,87,0.00,,,0.00,WeatherCatV1.10B1784,2013-07-13 18:27:00,
2013-07-13 14:32:00,73.7,69.9,30.26,ESE,119,0.0,1.0,88,0.00,,,0.00,WeatherCatV1.10B1784,2013-07-13 18:32:00,
2013-07-13 14:37:00,74.0,70.2,30.26,ESE,119,0.0,3.0,88,0.00,,,0.00,WeatherCatV1.10B1784,2013-07-13 18:37:00,
2013-07-13 14:42:00,74.4,69.9,30.26,East,96,1.0,5.0,86,0.00,,,0.00,WeatherCatV1.10B1784,2013-07-13 18:42:00,
2013-07-13 14:47:00,74.6,70.1,30.26,East,96,3.0,3.0,86,0.00,,,0.00,WeatherCatV1.10B1784,2013-07-13 18:47:00,
2013-07-13 14:52:00,74.6,69.8,30.26,East,97,0.0,2.0,85,0.00,,,0.00,WeatherCatV1.10B1784,2013-07-13 18:52:00,
2013-07-13 14:57:00,74.6,69.4,30.26,East,97,0.0,2.0,84,0.00,,,0.00,WeatherCatV1.10B1784,2013-07-13 18:57:00,
2013-07-13 15:02:00,74.8,70.3,30.26,East,101,0.0,4.0,86,0.00,,,0.00,WeatherCatV1.10B1784,2013-07-13 19:02:00,
2013-07-13 15:07:00,74.8,70.0,30.26,East,101,0.0,0.0,85,0.00,,,0.00,WeatherCatV1.10B1784,2013-07-13 19:07:00,
2013-07-13 15:12:00,74.9,69.7,30.25,East,101,2.0,2.0,84,0.00,,,0.00,WeatherCatV1.10B1784,2013-07-13 19:12:00,
2013-07-13 15:17:00,74.9,69.7,30.25,East,101,0.0,0.0,84,0.00,,,0.00,WeatherCatV1.10B1784,2013-07-13 19:17:00,
2013-07-13 15:22:00,75.1,70.3,30.25,East,101,0.0,0.0,85,0.00,,,0.00,WeatherCatV1.10B1784,2013-07-13 19:22:00,
2013-07-13 15:27:00,75.1,69.9,30.25,East,101,0.0,0.0,84,0.00,,,0.00,WeatherCatV1.10B1784,2013-07-13 19:27:00,
2013-07-13 15:32:00,75.0,69.8,30.25,East,101,0.0,0.0,84,0.00,,,0.00,WeatherCatV1.10B1784,2013-07-13 19:32:00,
2013-07-13 15:37:00,75.1,69.9,30.25,ESE,102,0.0,1.0,84,0.00,,,0.00,WeatherCatV1.10B1784,2013-07-13 19:37:00,
2013-07-13 15:42:00,75.2,69.7,30.25,ESE,102,0.0,0.0,83,0.00,,,0.00,WeatherCatV1.10B1784,2013-07-13 19:42:00,
2013-07-13 15:47:00,75.0,69.8,30.24,ESE,102,0.0,1.0,84,0.00,,,0.00,WeatherCatV1.10B1784,2013-07-13 19:47:00,
2013-07-13 15:52:00,75.2,70.0,30.25,ESE,102,0.0,0.0,84,0.00,,,0.00,WeatherCatV1.10B1784,2013-07-13 19:52:00,
2013-07-13 15:57:00,75.1,69.9,30.25,ESE,102,0.0,0.0,84,0.00,,,0.00,WeatherCatV1.10B1784,2013-07-13 19:57:00,
2013-07-13 16:02:00,75.1,69.9,30.24,ESE,102,0.0,0.0,84,0.00,,,0.00,WeatherCatV1.10B1784,2013-07-13 20:02:00,
2013-07-13 16:07:00,75.4,70.6,30.24,ESE,102,0.0,0.0,85,0.00,,,0.00,WeatherCatV1.10B1784,2013-07-13 20:07:00,
2013-07-13 16:12:00,75.7,70.2,30.24,ESE,102,0.0,1.0,83,0.00,,,0.00,WeatherCatV1.10B1784,2013-07-13 20:12:00,
2013-07-13 16:17:00,75.7,70.2,30.24,ESE,102,0.0,0.0,83,0.00,,,0.00,WeatherCatV1.10B1784,2013-07-13 20:17:00,
2013-07-13 16:22:00,75.6,70.4,30.24,ESE,102,0.0,0.0,84,0.00,,,0.00,WeatherCatV1.10B1784,2013-07-13 20:22:00,
2013-07-13 16:27:00,75.5,70.3,30.24,ESE,102,0.0,0.0,84,0.00,,,0.00,WeatherCatV1.10B1784,2013-07-13 20:27:00,
2013-07-13 16:32:00,75.1,69.9,30.24,ESE,102,0.0,0.0,84,0.00,,,0.00,WeatherCatV1.10B1784,2013-07-13 20:32:00,
2013-07-13 16:37:00,75.2,70.4,30.24,ESE,102,0.0,0.0,85,0.00,,,0.00,WeatherCatV1.10B1784,2013-07-13 20:37:00,
2013-07-13 16:42:00,74.9,70.4,30.24,ESE,102,0.0,0.0,86,0.00,,,0.00,WeatherCatV1.10B1784,2013-07-13 20:42:00,
2013-07-13 16:47:00,74.9,70.4,30.24,ESE,102,0.0,0.0,86,0.00,,,0.00,WeatherCatV1.10B1784,2013-07-13 20:47:00,
2013-07-13 16:52:00,74.9,70.4,30.24,ESE,102,0.0,0.0,86,0.00,,,0.00,WeatherCatV1.10B1784,2013-07-13 20:52:00,
2013-07-13 16:57:00,75.0,70.2,30.24,ESE,102,0.0,0.0,85,0.00,,,0.00,WeatherCatV1.10B1784,2013-07-13 20:57:00,
2013-07-13 17:02:00,75.1,70.3,30.24,ESE,102,0.0,0.0,85,0.00,,,0.00,WeatherCatV1.10B1784,2013-07-13 21:02:00,
2013-07-13 17:07:00,75.1,70.3,30.24,ESE,102,0.0,0.0,85,0.00,,,0.00,WeatherCatV1.10B1784,2013-07-13 21:07:00,
2013-07-13 17:12:00,74.7,70.2,30.24,ESE,102,0.0,0.0,86,0.00,,,0.00,WeatherCatV1.10B1784,2013-07-13 21:12:00,
2013-07-13 17:17:00,74.7,70.6,30.24,ESE,102,0.0,0.0,87,0.00,,,0.00,WeatherCatV1.10B1784,2013-07-13 21:17:00,
2013-07-13 17:22:00,74.6,70.5,30.24,ESE,102,0.0,0.0,87,0.00,,,0.00,WeatherCatV1.10B1784,2013-07-13 21:22:00,
2013-07-13 17:27:00,74.6,70.5,30.24,ESE,102,0.0,0.0,87,0.00,,,0.00,WeatherCatV1.10B1784,2013-07-13 21:27:00,
2013-07-13 17:32:00,74.6,70.5,30.24,ESE,102,0.0,0.0,87,0.00,,,0.00,WeatherCatV1.10B1784,2013-07-13 21:32:00,
2013-07-13 17:37:00,74.6,70.1,30.24,ESE,102,0.0,0.0,86,0.00,,,0.00,WeatherCatV1.10B1784,2013-07-13 21:37:00,
2013-07-13 17:42:00,74.6,70.5,30.24,ESE,102,0.0,0.0,87,0.00,,,0.00,WeatherCatV1.10B1784,2013-07-13 21:42:00,
2013-07-13 17:47:00,74.6,70.5,30.24,ESE,102,0.0,0.0,87,0.00,,,0.00,WeatherCatV1.10B1784,2013-07-13 21:47:00,
2013-07-13 17:52:00,74.5,70.4,30.24,ESE,102,0.0,0.0,87,0.00,,,0.00,WeatherCatV1.10B1784,2013-07-13 21:52:00,
2013-07-13 17:57:00,74.5,70.4,30.24,ESE,102,0.0,0.0,87,0.00,,,0.00,WeatherCatV1.10B1784,2013-07-13 21:57:00,
2013-07-13 18:02:00,74.6,70.5,30.24,ESE,102,0.0,0.0,87,0.00,,,0.00,WeatherCatV1.10B1784,2013-07-13 22:02:00,
2013-07-13 18:07:00,74.5,70.4,30.24,ESE,102,0.0,0.0,87,0.00,,,0.00,WeatherCatV1.10B1784,2013-07-13 22:07:00,
2013-07-13 18:12:00,74.3,70.5,30.24,ESE,102,0.0,0.0,88,0.00,,,0.00,WeatherCatV1.10B1784,2013-07-13 22:12:00,
2013-07-13 18:17:00,74.2,70.4,30.24,ESE,102,0.0,0.0,88,0.00,,,0.00,WeatherCatV1.10B1784,2013-07-13 22:17:00,
2013-07-13 18:22:00,74.2,70.4,30.24,ESE,102,0.0,0.0,88,0.00,,,0.00,WeatherCatV1.10B1784,2013-07-13 22:22:00,
2013-07-13 18:27:00,74.1,70.6,30.24,ESE,102,0.0,0.0,89,0.00,,,0.00,WeatherCatV1.10B1784,2013-07-13 22:27:00,
2013-07-13 18:32:00,74.0,70.5,30.24,ESE,102,0.0,0.0,89,0.00,,,0.00,WeatherCatV1.10B1784,2013-07-13 22:32:00,
2013-07-13 18:37:00,74.0,70.5,30.24,ESE,102,0.0,0.0,89,0.00,,,0.00,WeatherCatV1.10B1784,2013-07-13 22:37:00,
2013-07-13 18:42:00,74.1,70.6,30.24,ESE,102,0.0,0.0,89,0.00,,,0.00,WeatherCatV1.10B1784,2013-07-13 22:42:00,
2013-07-13 18:47:00,74.3,70.8,30.25,ESE,102,0.0,0.0,89,0.00,,,0.00,WeatherCatV1.10B1784,2013-07-13 22:47:00,
2013-07-13 18:52:00,74.2,70.4,30.25,ESE,102,0.0,0.0,88,0.00,,,0.00,WeatherCatV1.10B1784,2013-07-13 22:52:00,
2013-07-13 18:57:00,74.2,70.7,30.25,ESE,102,0.0,0.0,89,0.00,,,0.00,WeatherCatV1.10B1784,2013-07-13 22:57:00,
2013-07-13 19:02:00,74.0,70.2,30.25,ESE,102,0.0,0.0,88,0.00,,,0.00,WeatherCatV1.10B1784,2013-07-13 23:02:00,
2013-07-13 19:07:00,73.8,70.0,30.25,ESE,102,0.0,0.0,88,0.00,,,0.00,WeatherCatV1.10B1784,2013-07-13 23:07:00,
2013-07-13 19:12:00,73.7,70.2,30.26,ESE,102,0.0,0.0,89,0.00,,,0.00,WeatherCatV1.10B1784,2013-07-13 23:12:00,
2013-07-13 19:17:00,73.6,70.1,30.26,ESE,102,0.0,0.0,89,0.00,,,0.00,WeatherCatV1.10B1784,2013-07-13 23:17:00,
2013-07-13 19:22:00,73.5,70.0,30.26,ESE,102,0.0,0.0,89,0.00,,,0.00,WeatherCatV1.10B1784,2013-07-13 23:22:00,
2013-07-13 19:27:00,73.6,70.1,30.26,ESE,102,0.0,0.0,89,0.00,,,0.00,WeatherCatV1.10B1784,2013-07-13 23:27:00,
2013-07-13 19:32:00,73.5,70.0,30.26,ESE,102,0.0,0.0,89,0.00,,,0.00,WeatherCatV1.10B1784,2013-07-13 23:32:00,
2013-07-13 19:37:00,73.4,70.0,30.26,ESE,102,0.0,0.0,89,0.00,,,0.00,WeatherCatV1.10B1784,2013-07-13 23:37:00,
2013-07-13 19:42:00,73.4,70.3,30.26,ESE,102,0.0,0.0,90,0.00,,,0.00,WeatherCatV1.10B1784,2013-07-13 23:42:00,
2013-07-13 19:47:00,73.5,70.4,30.26,ESE,102,0.0,1.0,90,0.00,,,0.00,WeatherCatV1.10B1784,2013-07-13 23:47:00,
2013-07-13 19:52:00,73.6,70.5,30.26,ESE,102,2.0,3.0,90,0.00,,,0.00,WeatherCatV1.10B1784,2013-07-13 23:52:00,
2013-07-13 19:57:00,73.4,70.6,30.26,ESE,102,0.0,1.0,91,0.00,,,0.00,WeatherCatV1.10B1784,2013-07-13 23:57:00,
2013-07-13 20:02:00,73.3,70.5,30.26,ESE,102,0.0,0.0,91,0.00,,,0.00,WeatherCatV1.10B1784,2013-07-14 00:02:00,
2013-07-13 20:07:00,73.1,70.3,30.26,ESE,102,0.0,0.0,91,0.00,,,0.00,WeatherCatV1.10B1784,2013-07-14 00:07:00,
2013-07-13 20:12:00,72.9,70.1,30.26,ESE,102,0.0,1.0,91,0.00,,,0.00,WeatherCatV1.10B1784,2013-07-14 00:12:00,
2013-07-13 20:17:00,72.6,69.8,30.26,ESE,102,0.0,0.0,91,0.00,,,0.00,WeatherCatV1.10B1784,2013-07-14 00:17:00,
2013-07-13 20:22:00,72.5,70.0,30.26,ESE,102,0.0,0.0,92,0.00,,,0.00,WeatherCatV1.10B1784,2013-07-14 00:22:00,
2013-07-13 20:27:00,72.3,69.8,30.26,ESE,102,0.0,0.0,92,0.00,,,0.00,WeatherCatV1.10B1784,2013-07-14 00:27:00,
2013-07-13 20:32:00,72.2,70.1,30.26,ESE,102,0.0,0.0,93,0.00,,,0.00,WeatherCatV1.10B1784,2013-07-14 00:32:00,
2013-07-13 20:37:00,72.0,69.9,30.26,ESE,102,0.0,0.0,93,0.00,,,0.00,WeatherCatV1.10B1784,2013-07-14 00:37:00,
2013-07-13 20:42:00,71.9,69.8,30.26,ESE,102,0.0,0.0,93,0.00,,,0.00,WeatherCatV1.10B1784,2013-07-14 00:42:00,
2013-07-13 20:47:00,71.9,69.8,30.26,ESE,102,0.0,0.0,93,0.00,,,0.00,WeatherCatV1.10B1784,2013-07-14 00:47:00,
2013-07-13 20:52:00,71.8,69.7,30.26,ESE,102,0.0,0.0,93,0.00,,,0.00,WeatherCatV1.10B1784,2013-07-14 00:52:00,
2013-07-13 20:57:00,71.7,69.6,30.26,ESE,102,0.0,0.0,93,0.00,,,0.00,WeatherCatV1.10B1784,2013-07-14 00:57:00,
2013-07-13 21:02:00,71.7,69.9,30.26,ESE,102,0.0,0.0,94,0.00,,,0.00,WeatherCatV1.10B1784,2013-07-14 01:02:00,
2013-07-13 21:07:00,71.5,69.4,30.26,ESE,102,0.0,0.0,93,0.00,,,0.00,WeatherCatV1.10B1784,2013-07-14 01:07:00,
2013-07-13 21:12:00,71.5,69.7,30.26,ESE,102,0.0,0.0,94,0.00,,,0.00,WeatherCatV1.10B1784,2013-07-14 01:12:00,
2013-07-13 21:17:00,71.5,69.7,30.26,ESE,102,0.0,0.0,94,0.00,,,0.00,WeatherCatV1.10B1784,2013-07-14 01:17:00,
2013-07-13 21:22:00,71.4,69.6,30.26,ESE,102,0.0,0.0,94,0.00,,,0.00,WeatherCatV1.10B1784,2013-07-14 01:22:00,
2013-07-13 21:27:00,71.4,69.6,30.26,ESE,102,0.0,0.0,94,0.00,,,0.00,WeatherCatV1.10B1784,2013-07-14 01:27:00,
2013-07-13 21:32:00,71.3,69.5,30.26,ESE,102,0.0,0.0,94,0.00,,,0.00,WeatherCatV1.10B1784,2013-07-14 01:32:00,
2013-07-13 21:37:00,71.2,69.4,30.26,ESE,102,0.0,0.0,94,0.00,,,0.00,WeatherCatV1.10B1784,2013-07-14 01:37:00,
2013-07-13 21:42:00,71.1,69.3,30.26,ESE,102,0.0,0.0,94,0.00,,,0.00,WeatherCatV1.10B1784,2013-07-14 01:42:00,
2013-07-13 21:47:00,71.0,69.2,30.26,ESE,102,0.0,0.0,94,0.00,,,0.00,WeatherCatV1.10B1784,2013-07-14 01:47:00,
2013-07-13 21:52:00,70.9,69.1,30.26,ESE,102,0.0,0.0,94,0.00,,,0.00,WeatherCatV1.10B1784,2013-07-14 01:52:00,
2013-07-13 21:57:00,70.7,68.9,30.26,ESE,102,0.0,0.0,94,0.00,,,0.00,WeatherCatV1.10B1784,2013-07-14 01:57:00,
2013-07-13 22:02:00,70.6,68.8,30.26,ESE,102,0.0,0.0,94,0.00,,,0.00,WeatherCatV1.10B1784,2013-07-14 02:02:00,
2013-07-13 22:07:00,70.5,68.7,30.26,ESE,102,0.0,0.0,94,0.00,,,0.00,WeatherCatV1.10B1784,2013-07-14 02:07:00,
2013-07-13 22:12:00,70.4,68.6,30.26,ESE,102,0.0,0.0,94,0.00,,,0.00,WeatherCatV1.10B1784,2013-07-14 02:12:00,
2013-07-13 22:17:00,70.4,68.6,30.26,ESE,102,0.0,0.0,94,0.00,,,0.00,WeatherCatV1.10B1784,2013-07-14 02:17:00,
2013-07-13 22:22:00,70.3,68.5,30.26,ESE,102,0.0,0.0,94,0.00,,,0.00,WeatherCatV1.10B1784,2013-07-14 02:22:00,
2013-07-13 22:27:00,70.3,68.8,30.26,ESE,102,0.0,0.0,95,0.00,,,0.00,WeatherCatV1.10B1784,2013-07-14 02:27:00,
2013-07-13 22:32:00,70.4,68.9,30.26,ESE,102,0.0,0.0,95,0.00,,,0.00,WeatherCatV1.10B1784,2013-07-14 02:32:00,
2013-07-13 22:37:00,70.4,68.9,30.25,ESE,102,0.0,0.0,95,0.00,,,0.00,WeatherCatV1.10B1784,2013-07-14 02:37:00,
2013-07-13 22:42:00,70.4,68.9,30.26,ESE,102,0.0,0.0,95,0.00,,,0.00,WeatherCatV1.10B1784,2013-07-14 02:42:00,
2013-07-13 22:47:00,70.4,68.9,30.26,ESE,102,0.0,0.0,95,0.00,,,0.00,WeatherCatV1.10B1784,2013-07-14 02:47:00,
2013-07-13 22:52:00,70.5,69.0,30.26,South,190,0.0,3.0,95,0.00,,,0.00,WeatherCatV1.10B1784,2013-07-14 02:52:00,
2013-07-13 22:57:00,70.4,68.9,30.26,WSW,257,0.0,0.0,95,0.00,,,0.00,WeatherCatV1.10B1784,2013-07-14 02:57:00,
2013-07-13 23:02:00,70.4,68.9,30.26,WSW,257,0.0,1.0,95,0.00,,,0.00,WeatherCatV1.10B1784,2013-07-14 03:02:00,
2013-07-13 23:07:00,70.5,69.0,30.27,WSW,257,0.0,1.0,95,0.00,,,0.00,WeatherCatV1.10B1784,2013-07-14 03:07:00,
2013-07-13 23:12:00,70.6,69.1,30.26,WSW,257,0.0,0.0,95,0.00,,,0.00,WeatherCatV1.10B1784,2013-07-14 03:12:00,
2013-07-13 23:17:00,70.6,69.1,30.26,WSW,257,0.0,0.0,95,0.00,,,0.00,WeatherCatV1.10B1784,2013-07-14 03:17:00,
2013-07-13 23:22:00,70.6,69.1,30.26,WSW,257,0.0,0.0,95,0.00,,,0.00,WeatherCatV1.10B1784,2013-07-14 03:22:00,
2013-07-13 23:27:00,70.6,69.1,30.26,WSW,257,0.0,0.0,95,0.00,,,0.00,WeatherCatV1.10B1784,2013-07-14 03:27:00,
2013-07-13 23:32:00,70.7,69.2,30.26,WSW,257,0.0,0.0,95,0.00,,,0.00,WeatherCatV1.10B1784,2013-07-14 03:32:00,
2013-07-13 23:37:00,70.7,69.2,30.26,WSW,257,0.0,0.0,95,0.00,,,0.00,WeatherCatV1.10B1784,2013-07-14 03:37:00,
2013-07-13 23:42:00,70.7,69.2,30.25,WSW,257,0.0,0.0,95,0.00,,,0.00,WeatherCatV1.10B1784,2013-07-14 03:42:00,
2013-07-13 23:47:00,70.7,69.2,30.25,WSW,257,0.0,0.0,95,0.00,,,0.00,WeatherCatV1.10B1784,2013-07-14 03:47:00,
2013-07-13 23:52:00,70.7,69.2,30.25,WSW,257,0.0,0.0,95,0.00,,,0.00,WeatherCatV1.10B1784,2013-07-14 03:52:00,
2013-07-13 23:57:00,70.7,69.2,30.25,WSW,257,0.0,0.0,95,0.00,,,0.00,WeatherCatV1.10B1784,2013-07-14 03:57:00,